Location: Cabeza de los Veneras
(40.2000°N, 5.2000°W)
Time: 02:50:00
(UTC+00:00)

Cosmos 540 Rocket - Pass Details

Date: 18 April 2024
Orbit: 737 x 751 km, 74.1° (Epoch: 25 May)

Event Time Altitude Azimuth Distance (km) Brightness Sun altitude
Exits shadow 21:19:07 36° 61° (ENE) 1,169 4.2 -23.7°
Drops below altitude 10° 21:22:31 10° 32° (NNE) 2,255 6.0 -24.2°
Sets 21:24:57 0° 26° (NNE) 3,184 6.9 -24.5°
